Location: Kumla
(59.1265°N, 15.1401°E)
Time: 20:53:05
(UTC+01:00)

A-11 Canister half - Pass Details

Date: 04 December 2023
Orbit: 1526 x 1682 km, 47.3° (Epoch: 21 February)

Event Time Altitude Azimuth Distance (km) Brightness Sun altitude
Rises 21:32:44 0° 247° (WSW) 4,931 11.9 -45.9°
Reaches altitude 10° 21:36:07 10° 241° (WSW) 3,938 11.2 -46.2°
Enters shadow 21:38:11 17° 235° (SW) 3,375 10.8 -46.4°
